Find Starlink 33963

NORAD ID: 63968 Int'l Des: 2025-099 Owner: SPXS Country: US Constellation: starlink operational
LEOCIRCULAR

Live Position

Loading 3D Globe...

About Starlink 33963

Description loading...

Upcoming Passes

Passes for default location (London). Set your location on the main map for personalized predictions.

Altitude History

Loading altitude history...

Two-Line Element Set

1 63968U 25099S 26106.64122618 -.00001689 00000-0 -51877-4 0 9990
2 63968 43.0000 321.6150 0001267 265.5848 94.4858 15.27566171 53145
Epoch: Apr 16, 2026 • Age: 20 hours

Current Status

Altitude 482.9 km
Velocity 7.63 km/s
Sub-Earth Point -0.10°S, 126.43°E
Launch Date May 13, 2025
Age 0.9 years
Type internet

Technical Details

Classification Payload
Mass 575.00 kg
Dry Mass 530.00 kg
Total Mass 575.00 kg
Length 0.30 m
Diameter 4.10 m
Span 29.00 m
Shape Box + pan
Manufacturer SPXS
Bus Type Starlink V2MO
Phase Status In Orbit
Owner/State SPXS/US

Most Searched